sat.trackr.live / text

‹ back to catalog

STARLINK-5307

NORAD 55658 · 2023-021AG

PAYLOAD ACTIVE UNKNOWN

§ Identity

Operator
Country
US
Launch date
2023-02-17
Launch site
AFWTR
Launch vehicle
Mass (kg)
RCS (m²)

Purposes: comms

External: N2YO · Heavens-Above · Gunter

§ Orbital elements

Epoch: 2026-05-24T23:48:46.188000Z

Period
96.11 min
Inclination
69.9994°
Eccentricity
0.0002902
Mean motion
14.98330710 rev/d
Perigee alt
570.0 km
Apogee alt
574.1 km
Semi-major
6,950.2 km
B*
2.3744e-5
RAAN
351.9551°
Arg perigee
268.6069°
Mean anomaly
91.4757°
Rev number
18,022

§ Raw data

STARLINK-53071 55658U 23021AG  26144.99220125  .00000190  00000+0  23744-4 0  99972 55658  69.9994 351.9551 0002902 268.6069  91.4757 14.98330710180228

JSON: /api/v1/satellites/55658 · /tle

For live sub-satellite position, see the globe view (requires WebGL).

§ Visibility from observer

Set your observer location to see the next 7 days of passes ≥ 10°. The values pass through the URL so the page stays shareable.

No JS? Fill the form by hand. The geolocation button needs JavaScript.